CDT,Max TemperatureF,Mean TemperatureF,Min TemperatureF,Max Dew PointF,MeanDew PointF,Min DewpointF,Max Humidity, Mean Humidity, Min Humidity, Max Sea Level PressureIn, Mean Sea Level PressureIn, Min Sea Level PressureIn, Max VisibilityMiles, Mean VisibilityMiles, Min VisibilityMiles, Max Wind SpeedMPH, Mean Wind SpeedMPH, Max Gust SpeedMPH,PrecipitationIn, CloudCover, Events, WindDirDegrees
2013-6-1,74,62,49,59,54,46,95,72,45,29.76,29.66,29.61,10,10,10,20,5,25,0.00,5,Thunderstorm,251
2013-6-2,57,50,42,44,38,34,92,66,48,30.03,29.96,29.76,10,10,10,16,9,23,0.00,5,,324
2013-6-3,68,51,35,48,40,34,97,62,34,30.11,30.05,30.00,10,10,10,13,3,20,0.00,1,,270
2013-6-4,54,52,48,51,47,42,97,86,61,30.21,30.16,30.09,10,8,3,10,7,,0.46,8,Rain,78
2013-6-5,55,51,47,52,48,46,97,93,84,30.16,30.07,29.99,10,8,3,16,8,18,0.37,8,Rain,83
2013-6-6,52,50,48,49,48,46,98,93,81,30.01,30.00,29.97,10,9,2,12,7,,0.19,8,Rain,70
2013-6-7,63,54,46,53,48,43,94,77,58,30.03,29.99,29.95,10,10,10,7,2,,0.00,8,,61
2013-6-8,67,58,50,54,50,43,99,81,45,30.03,29.99,29.94,10,10,4,10,3,17,0.19,6,Rain-Thunderstorm,121
2013-6-9,71,60,50,58,53,46,91,77,59,30.04,29.95,29.87,10,10,10,20,8,28,0.03,5,Rain,90
2013-6-10,76,64,53,60,58,53,99,77,58,29.89,29.84,29.81,10,8,1,7,3,,0.00,3,Rain,66
2013-6-11,77,63,50,62,58,51,100,79,54,29.92,29.88,29.84,10,8,0,12,2,16,0.00,2,Fog-Thunderstorm,260
2013-6-12,73,66,58,60,57,54,99,79,55,29.94,29.85,29.74,10,9,3,13,6,,0.05,4,Rain-Thunderstorm,69
2013-6-13,73,64,54,57,52,49,96,67,43,30.13,29.99,29.82,10,10,10,15,7,26,0.00,2,,359
2013-6-14,75,60,44,53,48,43,97,62,37,30.17,30.09,30.00,10,10,10,13,5,17,0.00,0,,121
2013-6-15,75,66,57,64,60,50,99,83,64,30.04,29.92,29.81,10,9,1,25,7,31,1.14,6,Rain-Thunderstorm,190
2013-6-16,79,65,51,59,53,46,100,66,32,29.91,29.88,29.86,10,9,0,15,4,24,0.01,2,Fog,271
2013-6-17,78,64,50,58,53,49,95,70,40,30.03,29.93,29.88,10,10,10,18,4,24,0.01,2,Rain,3
2013-6-18,69,58,45,53,44,38,91,62,38,30.14,30.10,30.03,10,10,10,14,7,17,0.00,2,,72
2013-6-19,74,56,39,55,45,36,95,61,34,30.16,30.11,30.06,10,10,10,10,2,,0.00,2,,200
2013-6-20,83,68,54,58,53,50,89,56,36,30.13,30.09,30.04,10,10,10,16,5,22,0.00,2,,172
2013-6-21,73,67,61,64,61,55,98,79,64,30.10,29.99,29.82,10,10,5,20,8,26,0.62,5,Rain-Thunderstorm,208
2013-6-22,77,68,60,66,63,60,98,88,65,30.10,30.01,29.93,10,8,4,17,5,30,0.20,4,Rain-Thunderstorm,105
2013-6-23,83,72,62,69,63,58,96,74,45,29.95,29.90,29.83,10,10,7,20,11,30,0.12,2,Rain,197
2013-6-24,78,70,62,68,65,62,97,80,68,29.98,29.93,29.86,10,10,10,15,6,23,0.00,3,,215
2013-6-25,79,72,64,67,64,62,96,80,61,29.91,29.86,29.81,10,10,10,12,5,16,0.00,4,Rain,201
2013-6-26,81,74,67,69,66,61,100,83,51,29.81,29.77,29.72,10,8,0,12,4,,0.04,4,Fog-Rain-Thunderstorm,151
2013-6-27,82,72,61,68,63,57,100,77,42,29.82,29.77,29.70,10,9,0,15,3,22,0.04,5,Fog-Thunderstorm,284
2013-6-28,70,65,60,64,59,55,97,82,65,29.74,29.69,29.66,10,10,3,13,5,18,0.51,5,Rain,303
2013-6-29,70,64,57,60,56,47,98,81,58,29.93,29.79,29.70,10,10,3,16,7,22,0.01,6,Rain,7
2013-6-30,77,64,50,52,46,39,89,57,26,30.11,30.02,29.93,10,10,10,14,6,20,0.00,0,,10